• In Uzbekistan
  • List of Countries
  • For 7 days
  • Water Temperature
  • Satellite Maps
  • Weather Map
  • Weather Widgets
  • user-avatar
    Login

    Hourly Weather Maglod

    Today, 19 October, Thursday

    Time Temperature Precipitation Wind Pressure Humidity
    00:00 +15°C° 0 mm 1 mps 744 mmHg 63%
    01:00 +14°C° 0 mm 1 mps 744 mmHg 65%
    02:00 +14°C° 0 mm 1 mps 744 mmHg 66%
    03:00 +14°C° 0 mm 1 mps 744 mmHg 67%
    04:00 +13°C° 0 mm 1 mps 743 mmHg 68%
    05:00 +13°C° 0 mm 1 mps 743 mmHg 69%
    06:00 +13°C° 0 mm 1 mps 744 mmHg 69%
    07:00 +13°C° 0 mm 1 mps 744 mmHg 70%
    08:00 +14°C° 0 mm 1 mps 744 mmHg 63%
    09:00 +16°C° 0 mm 1 mps 744 mmHg 57%
    10:00 +19°C° 0 mm 1 mps 744 mmHg 50%
    11:00 +20°C° 0 mm 1 mps 744 mmHg 46%
    12:00 +21°C° 0 mm 2 mps 744 mmHg 43%
    13:00 +23°C° 0 mm 2 mps 744 mmHg 39%
    14:00 +21°C° 0 mm 2 mps 744 mmHg 41%
    15:00 +22°C° 0 mm 1 mps 744 mmHg 43%
    16:00 +21°C° 0 mm 1 mps 743 mmHg 45%
    17:00 +20°C° 0 mm 1 mps 743 mmHg 49%
    18:00 +18°C° 0 mm 1 mps 744 mmHg 53%
    19:00 +16°C° 0 mm 1 mps 744 mmHg 56%
    20:00 +16°C° 0 mm 1 mps 744 mmHg 59%
    21:00 +15°C° 0 mm 1 mps 744 mmHg 61%
    22:00 +15°C° 0 mm 1 mps 744 mmHg 63%
    23:00 +14°C° 0 mm 1 mps 744 mmHg 65%

    Tomorrow, 20 October, Friday

    Time Temperature Precipitation Wind Pressure Humidity
    00:00 +14°C° 0 mm 1 mps 744 mmHg 67%
    01:00 +13°C° 0 mm 1 mps 744 mmHg 69%
    02:00 +13°C° 0 mm 1 mps 744 mmHg 71%
    03:00 +12°C° 0 mm 0 mps 744 mmHg 72%
    04:00 +11°C° 0 mm 0 mps 744 mmHg 74%
    05:00 +11°C° 0 mm 0 mps 744 mmHg 74%
    06:00 +11°C° 0 mm 0 mps 745 mmHg 74%
    07:00 +11°C° 0 mm 0 mps 745 mmHg 74%
    08:00 +13°C° 0 mm 0 mps 745 mmHg 67%
    09:00 +15°C° 0 mm 0 mps 746 mmHg 59%
    10:00 +17°C° 0 mm 0 mps 746 mmHg 52%
    11:00 +20°C° 0 mm 1 mps 746 mmHg 48%
    12:00 +21°C° 0 mm 1 mps 746 mmHg 44%
    13:00 +22°C° 0 mm 1 mps 745 mmHg 40%
    14:00 +22°C° 0 mm 1 mps 745 mmHg 42%
    15:00 +21°C° 0 mm 1 mps 745 mmHg 43%
    16:00 +19°C° 0 mm 0 mps 745 mmHg 45%
    17:00 +18°C° 0 mm 0 mps 745 mmHg 48%
    18:00 +18°C° 0 mm 1 mps 746 mmHg 51%
    19:00 +16°C° 0 mm 1 mps 746 mmHg 54%
    20:00 +16°C° 0 mm 1 mps 746 mmHg 56%
    21:00 +14°C° 0 mm 0 mps 746 mmHg 58%
    22:00 +14°C° 0 mm 0 mps 746 mmHg 61%
    23:00 +13°C° 0 mm 0 mps 746 mmHg 62%

    Day after tomorrow, 21 October, Saturday

    Time Temperature Precipitation Wind Pressure Humidity
    00:00 +14°C° 0 mm 1 mps 747 mmHg 64%
    01:00 +13°C° 0 mm 1 mps 747 mmHg 66%
    02:00 +13°C° 0 mm 1 mps 746 mmHg 68%
    03:00 +13°C° 0 mm 1 mps 746 mmHg 69%
    04:00 +12°C° 0 mm 1 mps 746 mmHg 71%
    05:00 +12°C° 0 mm 1 mps 746 mmHg 71%
    06:00 +12°C° 0 mm 1 mps 747 mmHg 72%
    07:00 +12°C° 0 mm 1 mps 747 mmHg 73%
    08:00 +14°C° 0 mm 1 mps 747 mmHg 66%
    09:00 +16°C° 0 mm 1 mps 747 mmHg 59%
    10:00 +19°C° 0 mm 1 mps 747 mmHg 53%
    11:00 +19°C° 0 mm 1 mps 747 mmHg 50%
    12:00 +20°C° 0 mm 1 mps 747 mmHg 47%
    13:00 +21°C° 0 mm 1 mps 747 mmHg 44%
    14:00 +21°C° 0 mm 1 mps 746 mmHg 46%
    15:00 +20°C° 0 mm 1 mps 746 mmHg 48%
    16:00 +20°C° 0 mm 1 mps 746 mmHg 50%
    17:00 +19°C° 0 mm 1 mps 746 mmHg 53%
    18:00 +16°C° 0 mm 0 mps 746 mmHg 56%
    19:00 +15°C° 0 mm 0 mps 746 mmHg 59%
    20:00 +14°C° 0 mm 0 mps 746 mmHg 61%
    21:00 +14°C° 0 mm 0 mps 746 mmHg 63%
    22:00 +14°C° 0 mm 0 mps 746 mmHg 64%
    23:00 +13°C° 0 mm 0 mps 746 mmHg 66%

    22 October, Sunday

    Time Temperature Precipitation Wind Pressure Humidity
    00:00 +13°C° 0 mm 0 mps 746 mmHg 67%
    01:00 +13°C° 0 mm 0 mps 746 mmHg 68%
    02:00 +12°C° 0 mm 0 mps 745 mmHg 69%
    03:00 +12°C° 0 mm 0 mps 745 mmHg 70%
    04:00 +12°C° 0 mm 0 mps 745 mmHg 71%
    05:00 +12°C° 0 mm 0 mps 745 mmHg 70%
    06:00 +12°C° 0 mm 0 mps 745 mmHg 70%
    07:00 +12°C° 0 mm 0 mps 745 mmHg 69%
    08:00 +13°C° 0 mm 0 mps 745 mmHg 65%
    09:00 +16°C° 0 mm 1 mps 745 mmHg 61%
    10:00 +18°C° 0 mm 1 mps 745 mmHg 56%
    11:00 +19°C° 0 mm 1 mps 744 mmHg 54%
    12:00 +19°C° 0 mm 1 mps 744 mmHg 51%
    13:00 +20°C° 0 mm 1 mps 744 mmHg 49%
    14:00 +20°C° 0 mm 1 mps 743 mmHg 50%
    15:00 +18°C° 0 mm 2 mps 743 mmHg 52%
    16:00 +18°C° 0 mm 2 mps 742 mmHg 53%
    17:00 +17°C° 0.1 mm 2 mps 742 mmHg 58%
    18:00 +16°C° 0.1 mm 2 mps 742 mmHg 62%
    19:00 +14°C° 0.1 mm 3 mps 742 mmHg 66%
    20:00 +13°C° 0.8 mm 3 mps 742 mmHg 71%
    21:00 +13°C° 0.8 mm 4 mps 742 mmHg 75%
    22:00 +12°C° 0.8 mm 4 mps 742 mmHg 80%
    23:00 +12°C° 0.4 mm 4 mps 742 mmHg 80%

    23 October, Monday

    Time Temperature Precipitation Wind Pressure Humidity
    00:00 +12°C° 0.4 mm 5 mps 742 mmHg 80%
    01:00 +10°C° 0.4 mm 5 mps 742 mmHg 80%
    02:00 +10°C° 0.8 mm 5 mps 742 mmHg 80%
    03:00 +10°C° 0.8 mm 5 mps 742 mmHg 80%
    04:00 +9°C° 0.8 mm 6 mps 741 mmHg 80%
    05:00 +9°C° 2 mm 6 mps 741 mmHg 82%
    06:00 +9°C° 2 mm 6 mps 741 mmHg 83%
    07:00 +9°C° 2 mm 6 mps 741 mmHg 84%
    08:00 +9°C° 3.5 mm 6 mps 741 mmHg 85%
    09:00 +9°C° 3.5 mm 7 mps 742 mmHg 85%
    10:00 +8°C° 3.5 mm 7 mps 742 mmHg 86%
    11:00 +8°C° 2.1 mm 7 mps 742 mmHg 85%
    12:00 +8°C° 2.1 mm 7 mps 742 mmHg 84%
    13:00 +8°C° 2.1 mm 7 mps 742 mmHg 83%
    14:00 +8°C° 1.2 mm 7 mps 743 mmHg 82%
    15:00 +8°C° 1.2 mm 6 mps 743 mmHg 82%
    16:00 +8°C° 1.2 mm 6 mps 744 mmHg 82%
    17:00 +8°C° 0.6 mm 6 mps 744 mmHg 81%
    18:00 +8°C° 0.6 mm 5 mps 745 mmHg 81%
    19:00 +8°C° 0.6 mm 5 mps 745 mmHg 81%
    20:00 +8°C° 0.2 mm 5 mps 746 mmHg 80%
    21:00 +8°C° 0.2 mm 5 mps 746 mmHg 79%
    22:00 +8°C° 0.2 mm 4 mps 747 mmHg 79%
    23:00 +8°C° 0.2 mm 4 mps 747 mmHg 79%

    24 October, Tuesday

    Time Temperature Precipitation Wind Pressure Humidity
    00:00 +8°C° 0.2 mm 4 mps 747 mmHg 78%
    01:00 +8°C° 0.2 mm 4 mps 748 mmHg 78%
    02:00 +8°C° 0 mm 4 mps 748 mmHg 79%
    03:00 +7°C° 0 mm 4 mps 748 mmHg 79%
    04:00 +7°C° 0 mm 4 mps 748 mmHg 79%
    05:00 +7°C° 0 mm 4 mps 749 mmHg 80%
    06:00 +7°C° 0 mm 4 mps 749 mmHg 81%
    07:00 +8°C° 0 mm 3 mps 750 mmHg 81%
    08:00 +9°C° 0 mm 3 mps 750 mmHg 75%
    09:00 +10°C° 0 mm 4 mps 750 mmHg 69%
    10:00 +11°C° 0 mm 4 mps 751 mmHg 63%
    11:00 +12°C° 0 mm 3 mps 751 mmHg 60%
    12:00 +13°C° 0 mm 3 mps 750 mmHg 56%
    13:00 +14°C° 0 mm 3 mps 750 mmHg 52%
    14:00 +14°C° 0 mm 3 mps 751 mmHg 55%
    15:00 +14°C° 0 mm 2 mps 751 mmHg 57%
    16:00 +14°C° 0 mm 2 mps 751 mmHg 60%
    17:00 +13°C° 0 mm 2 mps 751 mmHg 63%
    18:00 +12°C° 0 mm 1 mps 751 mmHg 67%
    19:00 +11°C° 0 mm 1 mps 752 mmHg 71%
    20:00 +10°C° 0 mm 1 mps 752 mmHg 73%
    21:00 +10°C° 0 mm 1 mps 752 mmHg 75%
    22:00 +10°C° 0 mm 1 mps 752 mmHg 77%
    23:00 +9°C° 0 mm 1 mps 752 mmHg 78%
    Show more